Weather History for LEIB - October, 2013

Change the Weather History Date:

Saturday, October 26, 2013

  Actual Average Record
Temperature  
Mean Temperature 74 °F -  
Max Temperature 81 °F 65 °F 81 °F (2013)
Min Temperature 68 °F 54 °F 48 °F (2010)
Cooling Degree Days 10    
Growing Degree Days 24 (Base 50)    
Moisture  
Dew Point 71 °F    
Average Humidity 87    
Maximum Humidity 100    
Minimum Humidity 53    
Precipitation  
Precipitation 0.00 in 0.07 in - ()
Sea Level Pressure  
Sea Level Pressure 29.99 in    
Wind  
Wind Speed 9 mph ()    
Max Wind Speed 15 mph    
Max Gust Speed 18 mph    
Visibility 6.3 miles    
Events      
Averages and records for this station are not official NWS values.
T = Trace of Precipitation, MM = Missing Value Source: Averaged Metar Reports

Daily Weather History Graph

Daily Weather History Graph

Search for Another Location

Airport or City:

Trip Planner

Search our weather history database for the weather conditions in past years. The results will help you decide how hot, cold, wet, or windy it might be!

Date:

Astronomy

Oct. 26, 2013 Rise Set
Actual Time 8:15 AM CEST 7:01 PM CEST
Civil Twilight 7:47 AM CEST 7:28 PM CEST
Nautical Twilight 7:16 AM CEST 7:59 PM CEST
Astronomical Twilight 6:45 AM CEST 8:30 PM CEST
Moon 12:08 AM CEST (10/26) 2:21 PM CEST (10/26)
Length of Visible Light 11h 40m
Length of Day
10h 45m
Waning Gibbous, 55% of the Moon is Illuminated
Oct 26
Waning Gibbous
Oct 27
Last Quarter
Nov 3
New
Nov 10
First Quarter
Nov 17
Full

Hourly Weather History & Observations

Time (CEST) Temp. Heat Index Dew Point Humidity Pressure Visibility Wind Dir Wind Speed Gust Speed Precip Events Conditions
12:00 AM 73.4 °F - 73.4 °F 100% 29.95 in 6.2 mi ENE 11.5 mph - N/A   Partly Cloudy
12:30 AM 73.4 °F - 73.4 °F 100% 29.92 in 6.2 mi ENE 10.4 mph - N/A   Partly Cloudy
1:00 AM 73.4 °F - 73.4 °F 100% 29.92 in 6.2 mi ENE 12.7 mph - N/A   Partly Cloudy
1:30 AM 73.4 °F - 73.4 °F 100% 29.92 in 6.2 mi ENE 15.0 mph - N/A   Partly Cloudy
2:00 AM 74 °F - 70 °F 83% 29.93 in 7 mi ENE 15.0 mph - -   Scattered Clouds
2:00 AM 73.4 °F - 73.4 °F 100% 29.92 in 6.2 mi ENE 13.8 mph - N/A   Partly Cloudy
2:30 AM 73.4 °F - 73.4 °F 100% 29.92 in 6.2 mi ENE 13.8 mph - N/A   Partly Cloudy
3:00 AM 73.4 °F - 73.4 °F 100% 29.92 in - ENE 12.7 mph - N/A   Clear
3:30 AM 73.4 °F - 73.4 °F 100% 29.92 in - ENE 11.5 mph - N/A   Clear
4:00 AM 71.6 °F - 71.6 °F 100% 29.92 in - NNE 6.9 mph - N/A   Clear
4:30 AM 71.6 °F - 71.6 °F 100% 29.92 in - North 9.2 mph - N/A   Clear
5:00 AM 73.4 °F - 71.6 °F 94% 29.95 in - NNW 9.2 mph - N/A   Clear
5:30 AM 71.6 °F - 71.6 °F 100% 29.92 in - North 6.9 mph - N/A   Clear
6:00 AM 71.6 °F - 71.6 °F 100% 29.92 in - North 9.2 mph - N/A   Clear
6:30 AM 71.6 °F - 71.6 °F 100% 29.92 in - NNE 8.1 mph - N/A   Clear
7:00 AM 73.4 °F - 71.6 °F 94% 29.92 in - North 8.1 mph - N/A   Clear
7:30 AM 73.4 °F - 71.6 °F 94% 29.95 in - North 8.1 mph - N/A   Clear
8:00 AM 72 °F - 68 °F 83% 29.94 in 6 mi North 6.9 mph - -   Mist
8:00 AM 73.4 °F - 71.6 °F 94% 29.92 in 5.6 mi North 8.1 mph - N/A   Partly Cloudy
8:30 AM 71.6 °F - 69.8 °F 94% 29.95 in 5.6 mi North 5.8 mph - N/A   Partly Cloudy
9:00 AM 73.4 °F - 71.6 °F 94% 29.98 in 5.6 mi NNW 5.8 mph - N/A   Partly Cloudy
9:30 AM 75.2 °F - 71.6 °F 89% 29.98 in 5.6 mi NNW 8.1 mph - N/A   Partly Cloudy
10:00 AM 75.2 °F - 71.6 °F 89% 29.98 in 5.6 mi NNW 6.9 mph - N/A   Partly Cloudy
10:30 AM 77.0 °F - 71.6 °F 83% 29.98 in 5.6 mi North 10.4 mph - N/A   Partly Cloudy
11:00 AM 78.8 °F - 71.6 °F 78% 29.98 in 5.6 mi North 9.2 mph - N/A   Partly Cloudy
11:30 AM 78.8 °F - 71.6 °F 78% 30.01 in 5.6 mi North 9.2 mph - N/A   Scattered Clouds
12:00 PM 78.8 °F - 71.6 °F 78% 30.01 in 5.6 mi North 5.8 mph 18.4 mph N/A   Scattered Clouds
12:30 PM 78.8 °F - 71.6 °F 78% 30.04 in 5.0 mi NW 6.9 mph - N/A   Mostly Cloudy
1:00 PM 78.8 °F - 69.8 °F 74% 30.04 in 5.0 mi NW 9.2 mph - N/A   Mostly Cloudy
1:30 PM 78.8 °F - 69.8 °F 74% 30.01 in 5.6 mi NW 11.5 mph - N/A   Mostly Cloudy
2:00 PM 81 °F - 67 °F 53% 30.02 in 16 mi NW 12.7 mph - -   Mostly Cloudy
2:00 PM 80.6 °F 83.9 °F 69.8 °F 70% 30.01 in 5.6 mi WNW 12.7 mph - N/A   Mostly Cloudy
2:30 PM 78.8 °F - 69.8 °F 74% 30.01 in 5.6 mi NW 12.7 mph - N/A   Mostly Cloudy
3:00 PM 78.8 °F - 69.8 °F 74% 30.01 in 5.6 mi NW 10.4 mph - N/A   Partly Cloudy
3:30 PM 78.8 °F - 69.8 °F 74% 30.01 in 5.6 mi NNW 8.1 mph - N/A   Scattered Clouds
4:00 PM 78.8 °F - 68.0 °F 69% 30.01 in 5.6 mi NNW 6.9 mph - N/A   Partly Cloudy
4:30 PM 78.8 °F - 69.8 °F 74% 30.01 in 5.6 mi NW 6.9 mph - N/A   Partly Cloudy
5:00 PM 77.0 °F - 68.0 °F 74% 30.01 in 6.2 mi NW 10.4 mph - N/A   Scattered Clouds
5:30 PM 77.0 °F - 69.8 °F 78% 30.04 in 6.2 mi WNW 6.9 mph - N/A   Partly Cloudy
6:00 PM 75.2 °F - 69.8 °F 83% 30.04 in 6.2 mi NW 9.2 mph - N/A   Partly Cloudy
6:30 PM 75.2 °F - 69.8 °F 83% 30.04 in 6.2 mi WNW 4.6 mph - N/A   Partly Cloudy
7:00 PM 75.2 °F - 69.8 °F 83% 30.04 in 6.2 mi WNW 4.6 mph - N/A   Partly Cloudy
7:30 PM 73.4 °F - 69.8 °F 88% 30.06 in 6.2 mi Variable 2.3 mph - N/A   Partly Cloudy
8:00 PM 72 °F - 67 °F 79% 30.09 in 12 mi West 3.5 mph - -   Scattered Clouds
8:00 PM 73.4 °F - 69.8 °F 88% 30.06 in 6.2 mi Variable 2.3 mph - N/A   Partly Cloudy
8:30 PM 71.6 °F - 69.8 °F 94% 30.09 in 6.2 mi West 3.5 mph - N/A   Partly Cloudy
9:00 PM 71.6 °F - 69.8 °F 94% 30.09 in 6.2 mi West 3.5 mph - N/A   Partly Cloudy
9:30 PM 71.6 °F - 68.0 °F 88% 30.09 in 6.2 mi Calm Calm - N/A   Partly Cloudy
10:00 PM 69.8 °F - 68.0 °F 94% 30.09 in 6.2 mi Variable 2.3 mph - N/A   Partly Cloudy
10:30 PM 69.8 °F - 68.0 °F 94% 30.09 in 6.2 mi West 4.6 mph - N/A   Partly Cloudy
11:00 PM 68.0 °F - 66.2 °F 94% 30.12 in 6.2 mi Variable 2.3 mph - N/A   Partly Cloudy
11:30 PM 69.8 °F - 68.0 °F 94% 30.12 in 6.2 mi Variable 1.2 mph - N/A   Partly Cloudy